Content
SEND FEEDBACK

Daily
Averages
Monthly
Summary
United States of America

ASHEVILLE, NORTH CAROLINA


Home > North America > United States > North Carolina
Elevation: 2240 feet     Latitude: 35 36N     Longitude: 082 32W

WEATHER
 
SELECT A DAY
Number of Records: 225,823;   Date Range: 1/1/95 - 7/29/14
 
SHARE

PRINT THIS DATA

[ ← Previous Day ]
WEATHER ALMANAC - FEBRUARY 19, 2013
[ Next Day → ]
[ °C ]   °F
Weather ElementAverageHighLow
Temperature40.2 °F55 °F (1:54 pm)33.8 °F (6:01 am)
Dewpoint27.8 °F39.2 °F (12:43 pm)10 °F (8:54 pm)
Humidity66.7 %100 % (6:45 am)28 % (8:54 pm)
Barometer29.99 in30.07 in (1:54 am)29.86 in (1:54 pm)
Wind Speed10.5 mph20.7 mph (2:54 pm)
Wind Gust35.7 mph (2:54 pm)
Weather ElementAverage
Visibility8.3 mi
Wind DirectionSSW (209.1 °)

Weather ElementTotal
Precipitation0.27 in
Heating Degree Days20.6 (Base 65)
Averaged from 32 records on February 19, 2013
WEATHER CONDITIONS BREAKOUT
WIND DIRECTION BREAKOUT
WEATHER BY HOUR - FEBRUARY 19, 2013
[ °C ]   °F
Local TimeTemperatureDewpointHumidityBarometerVisibilityWind DirectionWind SpeedGust SpeedPrecipitationEventsConditions
1:54 AM37.0 °F23.0 °F57 %30.07 in10.0 miSouth (170°)9.2 mphClear
2:54 AM37.9 °F23.0 °F55 %30.06 in10.0 miSouth (190°)6.9 mphOvercast
3:54 AM39.0 °F23.0 °F53 %30.07 in10.0 miSouth (190°)10.4 mphOvercast
4:54 AM37.9 °F25.0 °F60 %30.05 in10.0 miSouth (190°)9.2 mphMostly Cloudy
5:42 AM35.6 °F30.2 °F81 %30.06 in8.0 miSouth (190°)15.0 mph21.9 mph0.01 inSnowLight Snow
5:54 AM35.1 °F32.0 °F89 %30.05 in4.0 miSSE (160°)10.4 mph0.03 inSnowLight Snow
6:01 AM33.8 °F32.0 °F93 %30.04 in5.0 miSouth (170°)10.4 mph0.02 inSnowLight Snow
6:25 AM33.8 °F32.0 °F93 %30.04 in4.0 miSSE (160°)10.4 mph0.04 inSnowLight Snow
6:35 AM33.8 °F32.0 °F93 %30.04 in4.0 miSSE (160°)8.1 mph0.04 inSnowLight Snow
6:45 AM33.8 °F33.8 °F100 %30.03 in5.0 miSSE (160°)8.1 mph0.05 inRainLight Rain
6:54 AM34.0 °F33.1 °F96 %30.04 in7.0 miSSE (150°)9.2 mph0.05 inRainLight Rain
7:36 AM35.6 °F33.8 °F93 %30.00 in2.5 miSouth (170°)15.0 mph0.01 inRainLight Rain
7:54 AM36.0 °F34.0 °F93 %30.01 in2.5 miSouth (170°)13.8 mph0.02 inRainLight Rain
8:01 AM35.6 °F33.8 °F93 %29.98 in10.0 miSouth (170°)12.7 mphRainLight Rain
8:54 AM37.0 °F35.1 °F93 %29.98 in4.0 miSSE (160°)8.1 mph0.00 inMostly Cloudy
9:54 AM39.0 °F36.0 °F89 %29.97 in10.0 miSSW (210°)10.4 mphOvercast
10:14 AM39.2 °F35.6 °F87 %29.96 in10.0 miSouth (190°)8.1 mph19.6 mphOvercast
10:49 AM42.8 °F37.4 °F81 %29.96 in10.0 miSouth (180°)10.4 mphOvercast
10:54 AM41.0 °F37.0 °F86 %29.97 in10.0 miSouth (190°)9.2 mphOvercast
11:54 AM46.0 °F39.0 °F76 %29.93 in10.0 miSW (220°)4.6 mphScattered Clouds
12:43 PM48.2 °F39.2 °F71 %29.91 in10.0 miCalmMostly Cloudy
1:03 PM48.2 °F37.4 °F66 %29.90 in10.0 miCalmMostly Cloudy
1:54 PM55.0 °F30.0 °F38 %29.86 in10.0 miWNW (290°)12.7 mph25.3 mphPartly Cloudy
2:54 PM53.1 °F21.9 °F30 %29.86 in10.0 miNW (310°)20.7 mph35.7 mphClear
3:54 PM52.0 °F21.0 °F30 %29.87 in10.0 miWNW (300°)16.1 mph28.8 mphClear
4:54 PM50.0 °F21.9 °F33 %29.89 in10.0 miNW (310°)12.7 mph27.6 mphClear
5:54 PM46.9 °F18.0 °F32 %29.93 in10.0 miNNW (330°)16.1 mph24.2 mphPartly Cloudy
7:54 PM42.1 °F12.0 °F29 %29.99 in10.0 miNW (310°)16.1 mph23.0 mphClear
8:54 PM41.0 °F10.0 °F28 %30.00 in10.0 miNW (310°)11.5 mph23.0 mphClear
9:54 PM37.0 °F12.9 °F37 %30.02 in10.0 miNNW (330°)9.2 mphClear
10:54 PM35.1 °F12.9 °F40 %30.03 in10.0 miNNW (330°)9.2 mphClear
11:54 PM34.0 °F10.9 °F38 %30.04 in10.0 miNW (320°)11.5 mphClear
Hourly data recorded from KAVL, located miles away from Asheville, North Carolina







STORIES FROM OUR PARTNERS